"Sample Date","Sample Time","Sample Value","Units","Flow Rate","Sample Interval","Number Channels","Micron Size 0","Counts/Channel 0","Micron Size 1","Counts/Channel 1","Micron Size 2","Counts/Channel 2","Micron Size 3","Counts/Channel 3","Micron Size 4","Counts/Channel 4","Micron Size 5","Counts/Channel 5","Micron Size 6","Counts/Channel 6","Micron Size 7","Counts/Channel 7","Micron Size 8","Counts/Channel 8","Micron Size 9","Counts/Channel 9","Micron Size 10","Counts/Channel 10","Micron Size 11","Counts/Channel 11","Micron Size 12","Counts/Channel 12","Micron Size 13","Counts/Channel 13","Micron Size 14","Counts/Channel 14","Micron Size 15","Counts/Channel 15","Micron Size 16","Counts/Channel 16","Micron Size 17","Counts/Channel 17","Micron Size 18","Counts/Channel 18","Micron Size 19","Counts/Channel 19","Micron Size 20","Counts/Channel 20","Micron Size 21","Counts/Channel 21","Micron Size 22","Counts/Channel 22","Micron Size 23","Counts/Channel 23","Micron Size 24","Counts/Channel 24","Micron Size 25","Counts/Channel 25","Micron Size 26","Counts/Channel 26","Micron Size 27","Counts/Channel 27","Micron Size 28","Counts/Channel 28","Micron Size 29","Counts/Channel 29","Micron Size 30","Counts/Channel 30","Micron Size 31","Counts/Channel 31"
"04/02/08","20:00:01",28154.000,"cc",28442.098,6.00,6,0.100,24870.000,0.200,1213.000,0.300,858.000,0.500,907.000,1.000,306.000,5.000,0
"04/02/08","20:00:07",27760.000,"cc",28310.379,6.00,6,0.100,24561.000,0.200,1214.000,0.300,789.000,0.500,895.000,1.000,301.000,5.000,0
"04/02/08","20:00:13",28288.000,"cc",28286.570,6.00,6,0.100,25000.000,0.200,1211.000,0.300,809.000,0.500,921.000,1.000,347.000,5.000,0
"04/02/08","20:00:19",28000.000,"cc",28240.756,6.00,6,0.100,24668.000,0.200,1219.000,0.300,836.000,0.500,930.000,1.000,347.000,5.000,0
"04/02/08","20:00:25",27612.000,"cc",28285.104,6.00,6,0.100,24605.000,0.200,1185.000,0.300,702.000,0.500,821.000,1.000,299.000,5.000,0
"04/02/08","20:00:31",28570.000,"cc",28362.738,6.00,6,0.100,25180.000,0.200,1429.000,0.300,786.000,0.500,880.000,1.000,295.000,5.000,0
"04/02/08","20:00:37",42067.000,"cc",28281.668,6.00,6,0.100,36948.000,0.200,2621.000,0.300,1113.000,0.500,1035.000,1.000,350.000,5.000,0
"04/02/08","20:00:43",69829.000,"cc",28200.717,6.00,6,0.100,61812.000,0.200,5130.000,0.300,1305.000,0.500,1185.000,1.000,397.000,5.000,0
"04/02/08","20:00:49",117798.000,"cc",28317.520,6.00,6,0.100,105138.000,0.200,9674.000,0.300,1468.000,0.500,1138.000,1.000,380.000,5.000,0
"04/02/08","20:00:55",58066.000,"cc",28298.857,6.00,6,0.100,51279.000,0.200,4029.000,0.300,1225.000,0.500,1167.000,1.000,366.000,5.000,0
"04/02/08","20:01:01",80916.000,"cc",28255.535,6.00,6,0.100,73187.000,0.200,5674.000,0.300,969.000,0.500,815.000,1.000,271.000,5.000,0
"04/02/08","20:01:07",101256.000,"cc",28345.143,6.00,6,0.100,91652.000,0.200,7564.000,0.300,983.000,0.500,776.000,1.000,281.000,5.000,0
"04/02/08","20:01:13",169738.000,"cc",28291.475,6.00,6,0.100,153420.000,0.200,14047.000,0.300,1246.000,0.500,744.000,1.000,281.000,5.000,0
"04/02/08","20:01:19",212166.000,"cc",28358.250,6.00,6,0.100,191528.000,0.200,18231.000,0.300,1363.000,0.500,779.000,1.000,265.000,5.000,0
"04/02/08","20:01:25",194363.000,"cc",28348.412,6.00,6,0.100,175405.000,0.200,16529.000,0.300,1313.000,0.500,822.000,1.000,294.000,5.000,0
"04/02/08","20:01:31",216148.000,"cc",28279.639,6.00,6,0.100,194659.000,0.200,18979.000,0.300,1416.000,0.500,823.000,1.000,271.000,5.000,0
"04/02/08","20:01:37",115579.000,"cc",28343.461,6.00,6,0.100,54888.000,0.200,56124.000,0.300,3196.000,0.500,1010.000,1.000,361.000,5.000,0
"04/02/08","20:01:43",275025.000,"cc",28304.828,6.00,6,0.100,204626.000,0.200,65320.000,0.300,3639.000,0.500,1101.000,1.000,339.000,5.000,0
"04/02/08","20:01:49",282633.000,"cc",28331.371,6.00,6,0.100,240798.000,0.200,38028.000,0.300,2532.000,0.500,978.000,1.000,297.000,5.000,0
"04/02/08","20:01:55",283141.000,"cc",28318.219,6.00,6,0.100,239344.000,0.200,39871.000,0.300,2622.000,0.500,973.000,1.000,331.000,5.000,0
"04/02/08","20:02:01",214607.000,"cc",28310.834,6.00,6,0.100,139856.000,0.200,69114.000,0.300,4215.000,0.500,1078.000,1.000,344.000,5.000,0
"04/02/08","20:02:07",395712.000,"cc",28268.826,6.00,6,0.100,342399.000,0.200,48627.000,0.300,3214.000,0.500,1113.000,1.000,359.000,5.000,0
"04/02/08","20:02:13",354688.000,"cc",28300.191,6.00,6,0.100,310233.000,0.200,40087.000,0.300,2822.000,0.500,1154.000,1.000,392.000,5.000,0
"04/02/08","20:02:19",286617.000,"cc",28304.033,6.00,6,0.100,252348.000,0.200,30049.000,0.300,2522.000,0.500,1251.000,1.000,447.000,5.000,0
"04/02/08","20:02:25",278612.000,"cc",28343.926,6.00,6,0.100,236187.000,0.200,38189.000,0.300,2709.000,0.500,1154.000,1.000,373.000,5.000,0
"04/02/08","20:02:31",345741.000,"cc",28350.291,6.00,6,0.100,291090.000,0.200,49981.000,0.300,3208.000,0.500,1104.000,1.000,358.000,5.000,0
"04/02/08","20:02:37",346914.000,"cc",28360.121,6.00,6,0.100,303294.000,0.200,39015.000,0.300,2889.000,0.500,1284.000,1.000,432.000,5.000,0
"04/02/08","20:02:43",291536.000,"cc",28259.566,6.00,6,0.100,245998.000,0.200,40679.000,0.300,3043.000,0.500,1343.000,1.000,472.000,5.000,1.000
"04/02/08","20:02:49",181680.000,"cc",28325.816,6.00,6,0.100,162316.000,0.200,16337.000,0.300,1600.000,0.500,1040.000,1.000,387.000,5.000,0
"04/02/08","20:02:55",179031.000,"cc",28360.688,6.00,6,0.100,151203.000,0.200,24525.000,0.300,1900.000,0.500,1044.000,1.000,359.000,5.000,0
"04/02/08","20:03:01",272902.000,"cc",28322.398,6.00,6,0.100,242124.000,0.200,27481.000,0.300,1971.000,0.500,1000.000,1.000,326.000,5.000,0
"04/02/08","20:03:07",285379.000,"cc",28335.318,6.00,6,0.100,253304.000,0.200,28818.000,0.300,2024.000,0.500,942.000,1.000,291.000,5.000,0
"04/02/08","20:03:13",277237.000,"cc",28316.129,6.00,6,0.100,235194.000,0.200,38321.000,0.300,2465.000,0.500,925.000,1.000,332.000,5.000,0
"04/02/08","20:03:19",347313.000,"cc",28337.842,6.00,6,0.100,292486.000,0.200,50398.000,0.300,3006.000,0.500,1095.000,1.000,328.000,5.000,0
"04/02/08","20:03:25",277791.000,"cc",28283.002,6.00,6,0.100,236654.000,0.200,36989.000,0.300,2616.000,0.500,1124.000,1.000,408.000,5.000,0
"04/02/08","20:03:31",342819.000,"cc",28260.143,6.00,6,0.100,302075.000,0.200,36668.000,0.300,2467.000,0.500,1189.000,1.000,420.000,5.000,0
"04/02/08","20:03:37",282404.000,"cc",28372.428,6.00,6,0.100,251511.000,0.200,27148.000,0.300,2101.000,0.500,1229.000,1.000,415.000,5.000,0
"04/02/08","20:03:43",280739.000,"cc",28313.813,6.00,6,0.100,250174.000,0.200,26785.000,0.300,2080.000,0.500,1287.000,1.000,413.000,5.000,0
"04/02/08","20:03:49",216923.000,"cc",28285.697,6.00,6,0.100,194795.000,0.200,18951.000,0.300,1689.000,0.500,1081.000,1.000,407.000,5.000,0
"04/02/08","20:03:55",252783.000,"cc",28321.553,6.00,6,0.100,226300.000,0.200,23463.000,0.300,1682.000,0.500,1023.000,1.000,315.000,5.000,0
"04/02/08","20:04:01",334360.000,"cc",28331.510,6.00,6,0.100,295501.000,0.200,35000.000,0.300,2413.000,0.500,1066.000,1.000,380.000,5.000,0
"04/02/08","20:04:07",333192.000,"cc",28291.309,6.00,6,0.100,291977.000,0.200,36988.000,0.300,2647.000,0.500,1185.000,1.000,395.000,5.000,0
"04/02/08","20:04:13",320611.000,"cc",28344.510,6.00,6,0.100,283247.000,0.200,33444.000,0.300,2402.000,0.500,1129.000,1.000,389.000,5.000,0
"04/02/08","20:04:19",202731.000,"cc",28351.895,6.00,6,0.100,143167.000,0.200,54380.000,0.300,3519.000,0.500,1218.000,1.000,447.000,5.000,0
"04/02/08","20:04:25",305423.000,"cc",28289.773,6.00,6,0.100,245650.000,0.200,54868.000,0.300,3348.000,0.500,1168.000,1.000,389.000,5.000,0
"04/02/08","20:04:31",367311.000,"cc",28282.510,6.00,6,0.100,322566.000,0.200,40557.000,0.300,2767.000,0.500,1061.000,1.000,360.000,5.000,0
"04/02/08","20:04:37",359563.000,"cc",28309.789,6.00,6,0.100,316199.000,0.200,39457.000,0.300,2491.000,0.500,1068.000,1.000,348.000,5.000,0
"04/02/08","20:04:43",330906.000,"cc",28343.412,6.00,6,0.100,244777.000,0.200,79415.000,0.300,5279.000,0.500,1087.000,1.000,348.000,5.000,0
"04/02/08","20:04:49",463529.000,"cc",28357.223,6.00,6,0.100,297295.000,0.200,150538.000,0.300,14023.000,0.500,1364.000,1.000,309.000,5.000,0
"04/02/08","20:04:55",378715.000,"cc",28319.115,6.00,6,0.100,227897.000,0.200,138097.000,0.300,11042.000,0.500,1312.000,1.000,367.000,5.000,0
"04/02/08","20:05:01",420195.000,"cc",28292.686,6.00,6,0.100,270587.000,0.200,136282.000,0.300,11483.000,0.500,1453.000,1.000,390.000,5.000,0
"04/02/08","20:05:07",212985.000,"cc",28375.826,6.00,6,0.100,99385.000,0.200,104986.000,0.300,6768.000,0.500,1419.000,1.000,427.000,5.000,0
"04/02/08","20:05:13",196769.000,"cc",28295.711,6.00,6,0.100,99931.000,0.200,89538.000,0.300,5411.000,0.500,1430.000,1.000,459.000,5.000,0
"04/02/08","20:05:19",212984.000,"cc",28265.545,6.00,6,0.100,103503.000,0.200,101050.000,0.300,6393.000,0.500,1552.000,1.000,486.000,5.000,0
"04/02/08","20:05:25",325685.000,"cc",28328.434,6.00,6,0.100,221312.000,0.200,96001.000,0.300,6358.000,0.500,1531.000,1.000,483.000,5.000,0
"04/02/08","20:05:31",340759.000,"cc",28297.158,6.00,6,0.100,284749.000,0.200,49657.000,0.300,3886.000,0.500,1902.000,1.000,565.000,5.000,0
"04/02/08","20:05:37",320169.000,"cc",28275.625,6.00,6,0.100,255444.000,0.200,58620.000,0.300,4061.000,0.500,1557.000,1.000,487.000,5.000,0
"04/02/08","20:05:43",347451.000,"cc",28287.147,6.00,6,0.100,289218.000,0.200,51747.000,0.300,4009.000,0.500,1866.000,1.000,611.000,5.000,0
"04/02/08","20:05:49",197517.000,"cc",28314.957,6.00,6,0.100,139109.000,0.200,51787.000,0.300,4079.000,0.500,1914.000,1.000,628.000,5.000,0
"04/02/08","20:05:55",289325.000,"cc",28362.813,6.00,6,0.100,230758.000,0.200,52158.000,0.300,3901.000,0.500,1894.000,1.000,614.000,5.000,0
"04/02/08","20:06:01",288194.000,"cc",28308.076,6.00,6,0.100,241088.000,0.200,40169.000,0.300,3851.000,0.500,2294.000,1.000,792.000,5.000,0
"04/02/08","20:06:07",298369.000,"cc",28300.221,6.00,6,0.100,261111.000,0.200,30724.000,0.300,3403.000,0.500,2299.000,1.000,832.000,5.000,0
"04/02/08","20:06:13",231167.000,"cc",28285.522,6.00,6,0.100,204836.000,0.200,22237.000,0.300,2165.000,0.500,1416.000,1.000,513.000,5.000,0
"04/02/08","20:06:19",297065.000,"cc",28364.984,6.00,6,0.100,263240.000,0.200,29850.000,0.300,2295.000,0.500,1289.000,1.000,391.000,5.000,0
"04/02/08","20:06:25",315838.000,"cc",28282.098,6.00,6,0.100,269607.000,0.200,42040.000,0.300,2754.000,0.500,1070.000,1.000,367.000,5.000,0
"04/02/08","20:06:31",299825.000,"cc",28332.379,6.00,6,0.100,240233.000,0.200,54856.000,0.300,3304.000,0.500,1078.000,1.000,354.000,5.000,0
"04/02/08","20:06:37",353253.000,"cc",28321.830,6.00,6,0.100,310988.000,0.200,38193.000,0.300,2646.000,0.500,1065.000,1.000,361.000,5.000,0
"04/02/08","20:06:43",319194.000,"cc",28379.941,6.00,6,0.100,282040.000,0.200,32955.000,0.300,2427.000,0.500,1317.000,1.000,455.000,5.000,0
"04/02/08","20:06:49",203293.000,"cc",28304.424,6.00,6,0.100,179186.000,0.200,18765.000,0.300,2693.000,0.500,1982.000,1.000,667.000,5.000,0
"04/02/08","20:06:55",214119.000,"cc",28314.467,6.00,6,0.100,189445.000,0.200,20257.000,0.300,2357.000,0.500,1501.000,1.000,559.000,5.000,0
"04/02/08","20:07:01",285712.000,"cc",28310.457,6.00,6,0.100,252502.000,0.200,28584.000,0.300,2538.000,0.500,1571.000,1.000,517.000,5.000,0
"04/02/08","20:07:07",300720.000,"cc",28315.033,6.00,6,0.100,266961.000,0.200,29569.000,0.300,2433.000,0.500,1318.000,1.000,439.000,5.000,0
"04/02/08","20:07:13",316188.000,"cc",28351.752,6.00,6,0.100,269837.000,0.200,42187.000,0.300,2630.000,0.500,1148.000,1.000,386.000,5.000,0
"04/02/08","20:07:19",349848.000,"cc",28285.291,6.00,6,0.100,309733.000,0.200,36400.000,0.300,2336.000,0.500,1033.000,1.000,346.000,5.000,0
"04/02/08","20:07:25",274477.000,"cc",28294.912,6.00,6,0.100,233823.000,0.200,36376.000,0.300,2616.000,0.500,1218.000,1.000,444.000,5.000,0
"04/02/08","20:07:31",268337.000,"cc",28335.916,6.00,6,0.100,239873.000,0.200,24914.000,0.300,1970.000,0.500,1188.000,1.000,392.000,5.000,0
"04/02/08","20:07:37",126829.000,"cc",28293.191,6.00,6,0.100,113933.000,0.200,10350.000,0.300,1247.000,0.500,965.000,1.000,334.000,5.000,0
"04/02/08","20:07:43",64424.000,"cc",28284.273,6.00,6,0.100,57796.000,0.200,4407.000,0.300,1007.000,0.500,897.000,1.000,317.000,5.000,0
"04/02/08","20:07:49",76361.000,"cc",28342.065,6.00,6,0.100,68100.000,0.200,5499.000,0.300,1194.000,0.500,1198.000,1.000,370.000,5.000,0
"04/02/08","20:07:55",115108.000,"cc",28321.797,6.00,6,0.100,103766.000,0.200,8645.000,0.300,1249.000,0.500,1065.000,1.000,383.000,5.000,0
"04/02/08","20:08:01",72444.000,"cc",28310.268,6.00,6,0.100,64439.000,0.200,5176.000,0.300,1310.000,0.500,1119.000,1.000,400.000,5.000,0
"04/02/08","20:08:07",70021.000,"cc",28271.559,6.00,6,0.100,63008.000,0.200,4802.000,0.300,1015.000,0.500,902.000,1.000,294.000,5.000,0
"04/02/08","20:08:13",67794.000,"cc",28359.234,6.00,6,0.100,60382.000,0.200,4723.000,0.300,1150.000,0.500,1165.000,1.000,374.000,5.000,0
"04/02/08","20:08:19",52517.000,"cc",28293.461,6.00,6,0.100,46785.000,0.200,3361.000,0.300,1036.000,0.500,961.000,1.000,374.000,5.000,0
"04/02/08","20:08:25",36314.000,"cc",28309.363,6.00,6,0.100,31936.000,0.200,2071.000,0.300,974.000,0.500,996.000,1.000,337.000,5.000,0
"04/02/08","20:08:31",59610.000,"cc",28297.057,6.00,6,0.100,53631.000,0.200,3809.000,0.300,959.000,0.500,918.000,1.000,293.000,5.000,0
"04/02/08","20:08:37",49567.000,"cc",28443.330,6.00,6,0.100,44701.000,0.200,2999.000,0.300,814.000,0.500,797.000,1.000,256.000,5.000,0
"04/02/08","20:08:43",56106.000,"cc",28246.195,6.00,6,0.100,50294.000,0.200,3630.000,0.300,918.000,0.500,946.000,1.000,318.000,5.000,0
"04/02/08","20:08:49",80655.000,"cc",28331.969,6.00,6,0.100,73002.000,0.200,5654.000,0.300,954.000,0.500,772.000,1.000,273.000,5.000,0
"04/02/08","20:08:55",55870.000,"cc",28343.895,6.00,6,0.100,50825.000,0.200,3427.000,0.300,660.000,0.500,693.000,1.000,265.000,5.000,0
"04/02/08","20:09:01",40292.000,"cc",28277.322,6.00,6,0.100,35328.000,0.200,2423.000,0.300,1111.000,0.500,1051.000,1.000,379.000,5.000,0
"04/02/08","20:09:07",42087.000,"cc",28278.551,6.00,6,0.100,37861.000,0.200,2355.000,0.300,793.000,0.500,818.000,1.000,260.000,5.000,0
"04/02/08","20:09:13",44392.000,"cc",28325.395,6.00,6,0.100,40417.000,0.200,2397.000,0.300,629.000,0.500,717.000,1.000,232.000,5.000,0
"04/02/08","20:09:19",43257.000,"cc",28298.299,6.00,6,0.100,38217.000,0.200,2646.000,0.300,1042.000,0.500,1036.000,1.000,316.000,5.000,0
"04/02/08","20:09:25",35507.000,"cc",28364.053,6.00,6,0.100,31629.000,0.200,1902.000,0.300,813.000,0.500,881.000,1.000,282.000,5.000,0
"04/02/08","20:09:31",41660.000,"cc",28326.797,6.00,6,0.100,36980.000,0.200,2457.000,0.300,943.000,0.500,979.000,1.000,301.000,5.000,0
"04/02/08","20:09:37",41655.000,"cc",28290.543,6.00,6,0.100,36083.000,0.200,2702.000,0.300,1226.000,0.500,1271.000,1.000,373.000,5.000,0
"04/02/08","20:09:43",47958.000,"cc",28320.424,6.00,6,0.100,43180.000,0.200,2847.000,0.300,794.000,0.500,834.000,1.000,303.000,5.000,0
"04/02/08","20:09:49",46392.000,"cc",28292.598,6.00,6,0.100,41365.000,0.200,2889.000,0.300,887.000,0.500,920.000,1.000,331.000,5.000,0
"04/02/08","20:09:55",57010.000,"cc",28345.731,6.00,6,0.100,51531.000,0.200,3534.000,0.300,826.000,0.500,815.000,1.000,304.000,5.000,0
"04/02/08","20:10:01",57917.000,"cc",28353.539,6.00,6,0.100,51992.000,0.200,3745.000,0.300,891.000,0.500,940.000,1.000,349.000,5.000,0
"04/02/08","20:10:07",82187.000,"cc",28291.629,6.00,6,0.100,74435.000,0.200,5606.000,0.300,953.000,0.500,884.000,1.000,309.000,5.000,0
"04/02/08","20:10:13",51360.000,"cc",28269.068,6.00,6,0.100,46367.000,0.200,3064.000,0.300,812.000,0.500,840.000,1.000,277.000,5.000,0
"04/02/08","20:10:19",60184.000,"cc",28260.777,6.00,6,0.100,54260.000,0.200,3787.000,0.300,920.000,0.500,923.000,1.000,294.000,5.000,0
"04/02/08","20:10:25",50627.000,"cc",28393.248,6.00,6,0.100,45941.000,0.200,2977.000,0.300,699.000,0.500,746.000,1.000,264.000,5.000,0
"04/02/08","20:10:31",118967.000,"cc",28296.559,6.00,6,0.100,108059.000,0.200,8753.000,0.300,1032.000,0.500,826.000,1.000,297.000,5.000,0
"04/02/08","20:10:37",62703.000,"cc",28305.186,6.00,6,0.100,55963.000,0.200,4148.000,0.300,1094.000,0.500,1111.000,1.000,387.000,5.000,0
"04/02/08","20:10:43",44605.000,"cc",28415.258,6.00,6,0.100,38099.000,0.200,3095.000,0.300,1472.000,0.500,1442.000,1.000,497.000,5.000,0
"04/02/08","20:10:49",57123.000,"cc",28267.115,6.00,6,0.100,51135.000,0.200,3636.000,0.300,1023.000,0.500,990.000,1.000,339.000,5.000,0
"04/02/08","20:10:55",62331.000,"cc",28296.772,6.00,6,0.100,56255.000,0.200,3958.000,0.300,927.000,0.500,894.000,1.000,297.000,5.000,0
"04/02/08","20:11:01",53373.000,"cc",28431.756,6.00,6,0.100,47400.000,0.200,3389.000,0.300,1092.000,0.500,1104.000,1.000,388.000,5.000,0
"04/02/08","20:11:07",61992.000,"cc",28249.227,6.00,6,0.100,55697.000,0.200,4084.000,0.300,946.000,0.500,958.000,1.000,307.000,5.000,0
"04/02/08","20:11:13",53792.000,"cc",28301.109,6.00,6,0.100,47999.000,0.200,3369.000,0.300,1063.000,0.500,1007.000,1.000,354.000,5.000,0
"04/02/08","20:11:19",105094.000,"cc",28292.283,6.00,6,0.100,94685.000,0.200,7735.000,0.300,1214.000,0.500,1084.000,1.000,376.000,5.000,0
"04/02/08","20:11:25",85722.000,"cc",28339.238,6.00,6,0.100,78170.000,0.200,5600.000,0.300,889.000,0.500,802.000,1.000,261.000,5.000,0
"04/02/08","20:11:31",62802.000,"cc",28292.354,6.00,6,0.100,57148.000,0.200,3851.000,0.300,793.000,0.500,774.000,1.000,236.000,5.000,0
"04/02/08","20:11:37",46982.000,"cc",28280.102,6.00,6,0.100,42231.000,0.200,2758.000,0.300,849.000,0.500,868.000,1.000,276.000,5.000,0
"04/02/08","20:11:43",43112.000,"cc",28330.779,6.00,6,0.100,38877.000,0.200,2399.000,0.300,756.000,0.500,823.000,1.000,257.000,5.000,0
"04/02/08","20:11:49",59818.000,"cc",28381.834,6.00,6,0.100,54250.000,0.200,3642.000,0.300,851.000,0.500,799.000,1.000,276.000,5.000,0
"04/02/08","20:11:55",45120.000,"cc",28263.424,6.00,6,0.100,40084.000,0.200,2707.000,0.300,1023.000,0.500,978.000,1.000,328.000,5.000,0
"04/02/08","20:12:01",41418.000,"cc",28339.209,6.00,6,0.100,36924.000,0.200,2375.000,0.300,902.000,0.500,935.000,1.000,282.000,5.000,0
"04/02/08","20:12:07",51504.000,"cc",28355.443,6.00,6,0.100,46174.000,0.200,3239.000,0.300,906.000,0.500,887.000,1.000,298.000,5.000,0
"04/02/08","20:12:13",67644.000,"cc",28322.158,6.00,6,0.100,61387.000,0.200,4402.000,0.300,807.000,0.500,787.000,1.000,261.000,5.000,0
"04/02/08","20:12:19",53772.000,"cc",28282.428,6.00,6,0.100,46393.000,0.200,3833.000,0.300,1600.000,0.500,1460.000,1.000,486.000,5.000,0
"04/02/08","20:12:25",60377.000,"cc",28327.135,6.00,6,0.100,53973.000,0.200,3964.000,0.300,1068.000,0.500,1021.000,1.000,351.000,5.000,0
"04/02/08","20:12:31",68875.000,"cc",28335.156,6.00,6,0.100,62089.000,0.200,4615.000,0.300,993.000,0.500,877.000,1.000,301.000,5.000,0
"04/02/08","20:12:37",65610.000,"cc",28284.824,6.00,6,0.100,59211.000,0.200,4199.000,0.300,974.000,0.500,926.000,1.000,300.000,5.000,0
"04/02/08","20:12:43",51617.000,"cc",28305.971,6.00,6,0.100,46582.000,0.200,3056.000,0.300,858.000,0.500,842.000,1.000,279.000,5.000,0
"04/02/08","20:12:49",61301.000,"cc",28335.281,6.00,6,0.100,55139.000,0.200,3882.000,0.300,1015.000,0.500,946.000,1.000,319.000,5.000,0
"04/02/08","20:12:55",93368.000,"cc",28371.287,6.00,6,0.100,84821.000,0.200,6273.000,0.300,1042.000,0.500,939.000,1.000,293.000,5.000,0
"04/02/08","20:13:01",56486.000,"cc",28274.613,6.00,6,0.100,50760.000,0.200,3591.000,0.300,928.000,0.500,901.000,1.000,306.000,5.000,0
"04/02/08","20:13:07",52748.000,"cc",28287.147,6.00,6,0.100,47210.000,0.200,3261.000,0.300,961.000,0.500,976.000,1.000,340.000,5.000,0
"04/02/08","20:13:13",58113.000,"cc",28317.201,6.00,6,0.100,52219.000,0.200,3685.000,0.300,930.000,0.500,933.000,1.000,346.000,5.000,0
"04/02/08","20:13:19",112506.000,"cc",28245.307,6.00,6,0.100,101991.000,0.200,8163.000,0.300,1114.000,0.500,923.000,1.000,315.000,5.000,0
"04/02/08","20:13:25",103706.000,"cc",28370.221,6.00,6,0.100,94411.000,0.200,7126.000,0.300,995.000,0.500,879.000,1.000,295.000,5.000,0
"04/02/08","20:13:31",88769.000,"cc",28323.590,6.00,6,0.100,80450.000,0.200,6036.000,0.300,1025.000,0.500,941.000,1.000,317.000,5.000,0
"04/02/08","20:13:37",110122.000,"cc",28344.180,6.00,6,0.100,100071.000,0.200,7768.000,0.300,1041.000,0.500,912.000,1.000,330.000,5.000,0
"04/02/08","20:13:43",122416.000,"cc",28268.639,6.00,6,0.100,110983.000,0.200,8792.000,0.300,1260.000,0.500,989.000,1.000,392.000,5.000,0
"04/02/08","20:13:49",82258.000,"cc",28295.889,6.00,6,0.100,74647.000,0.200,5372.000,0.300,990.000,0.500,946.000,1.000,303.000,5.000,0
"04/02/08","20:13:55",73002.000,"cc",28373.697,6.00,6,0.100,66120.000,0.200,4719.000,0.300,932.000,0.500,912.000,1.000,319.000,5.000,0
"04/02/08","20:14:01",98456.000,"cc",28343.818,6.00,6,0.100,88826.000,0.200,7122.000,0.300,1193.000,0.500,981.000,1.000,334.000,5.000,0
"04/02/08","20:14:07",74194.000,"cc",28298.748,6.00,6,0.100,67371.000,0.200,4784.000,0.300,896.000,0.500,847.000,1.000,296.000,5.000,0
"04/02/08","20:14:13",78585.000,"cc",28313.363,6.00,6,0.100,71287.000,0.200,5156.000,0.300,970.000,0.500,889.000,1.000,283.000,5.000,0
"04/02/08","20:14:19",76416.000,"cc",28294.936,6.00,6,0.100,69282.000,0.200,5080.000,0.300,944.000,0.500,845.000,1.000,265.000,5.000,0
"04/02/08","20:14:25",58788.000,"cc",28295.785,6.00,6,0.100,53126.000,0.200,3570.000,0.300,932.000,0.500,890.000,1.000,270.000,5.000,0
"04/02/08","20:14:31",49457.000,"cc",28323.926,6.00,6,0.100,44115.000,0.200,3024.000,0.300,1003.000,0.500,971.000,1.000,344.000,5.000,0
"04/02/08","20:14:37",47478.000,"cc",28370.805,6.00,6,0.100,42557.000,0.200,2826.000,0.300,916.000,0.500,905.000,1.000,274.000,5.000,0
"04/02/08","20:14:43",46330.000,"cc",28305.281,6.00,6,0.100,41017.000,0.200,2808.000,0.300,1038.000,0.500,1076.000,1.000,391.000,5.000,0
"04/02/08","20:14:49",51597.000,"cc",28296.404,6.00,6,0.100,46033.000,0.200,3213.000,0.300,999.000,0.500,995.000,1.000,357.000,5.000,0
"04/02/08","20:14:55",82087.000,"cc",28319.506,6.00,6,0.100,74635.000,0.200,5364.000,0.300,965.000,0.500,850.000,1.000,273.000,5.000,0
"04/02/08","20:15:01",50682.000,"cc",28270.389,6.00,6,0.100,45306.000,0.200,2999.000,0.300,1021.000,0.500,1008.000,1.000,348.000,5.000,0
"04/02/08","20:15:07",41054.000,"cc",28310.000,6.00,6,0.100,36473.000,0.200,2304.000,0.300,916.000,0.500,1060.000,1.000,301.000,5.000,0
"04/02/08","20:15:13",55256.000,"cc",28280.174,6.00,6,0.100,49172.000,0.200,3505.000,0.300,1090.000,0.500,1124.000,1.000,365.000,5.000,0
"04/02/08","20:15:19",53364.000,"cc",28358.631,6.00,6,0.100,47686.000,0.200,3209.000,0.300,1067.000,0.500,1064.000,1.000,338.000,5.000,0
"04/02/08","20:15:25",52564.000,"cc",28323.477,6.00,6,0.100,47147.000,0.200,3167.000,0.300,907.000,0.500,993.000,1.000,350.000,5.000,0
"04/02/08","20:15:31",68355.000,"cc",28295.897,6.00,6,0.100,61475.000,0.200,4441.000,0.300,1076.000,0.500,1017.000,1.000,346.000,5.000,0
"04/02/08","20:15:37",70187.000,"cc",28343.592,6.00,6,0.100,62851.000,0.200,4656.000,0.300,1196.000,0.500,1118.000,1.000,366.000,5.000,0
"04/02/08","20:15:43",53772.000,"cc",28351.625,6.00,6,0.100,47685.000,0.200,3470.000,0.300,1180.000,0.500,1063.000,1.000,374.000,5.000,0
"04/02/08","20:15:49",76019.000,"cc",28301.582,6.00,6,0.100,68005.000,0.200,5215.000,0.300,1260.000,0.500,1115.000,1.000,424.000,5.000,0
"04/02/08","20:15:55",204022.000,"cc",28288.328,6.00,6,0.100,182811.000,0.200,18198.000,0.300,1589.000,0.500,1065.000,1.000,359.000,5.000,0
"04/02/08","20:16:01",116706.000,"cc",28347.822,6.00,6,0.100,104638.000,0.200,9340.000,0.300,1291.000,0.500,1075.000,1.000,362.000,5.000,0
"04/02/08","20:16:07",92913.000,"cc",28341.619,6.00,6,0.100,82166.000,0.200,7175.000,0.300,1651.000,0.500,1448.000,1.000,473.000,5.000,0
"04/02/08","20:16:13",74013.000,"cc",28328.520,6.00,6,0.100,65935.000,0.200,5372.000,0.300,1256.000,0.500,1075.000,1.000,375.000,5.000,0
"04/02/08","20:16:19",116023.000,"cc",28340.156,6.00,6,0.100,104456.000,0.200,8867.000,0.300,1323.000,0.500,1030.000,1.000,347.000,5.000,0